Regional Weather Roundup
Issued by NWS

Home | Current Version | Previous Version | Text Only | Print | Product List | Glossary On
Versions: 1 2 3 4 5 6 7 8 9 10 11 12 13 14 15 16 17 18 19 20 21 22 23 24 25 26 27 28 29 30 31 32 33 34 35 36 37 38 39 40 41 42 43 44 45 46 47 48 49 50
000
ASUS45 KTFX 251019
RWRMT
MONTANA HOURLY WEATHER ROUNDUP
NATIONAL WEATHER SERVICE GREAT FALLS MT
419 AM MDT FRI JUL 25 2014

NOTE: "FAIR" INDICATES FEW OR NO CLOUDS BELOW 12000 FEET WITH NO
SIGNIFICANT WEATHER AND/OR OBSTRUCTIONS TO VISIBILITY.

* THESE STATIONS ARE NOT UNDER NWS QUALITY CONTROL. THEY DO NOT
   REPORT WEATHER SUCH AS PRECIPITATION OR FOG.

MTZ001>007-043-251100-
WEST OF THE DIVIDE
CITY           SKY/WX    TMP DP  RH WIND       PRES   REMARKS
KALISPELL      PTCLDY    50  43  77 CALM      30.03F
MISSOULA       CLEAR     46  37  71 N3        30.12S
BUTTE          CLEAR     39  30  70 SE5       30.14F WCI  35
MULLAN PASS    MOCLDY    45  39  80 VRB7      30.15S
* ESSEX        N/A       56  40  55 NW6        N/A
* LINCOLN      N/A       46  36  68 SW3        N/A
* LOOKOUT PASS N/A       49  42  77 N2         N/A
* POLSON       N/A       49  39  69 S1         N/A
* RONAN APT    PTCLDY    50  45  83 N/A        N/A
* SEELEY LAKE  N/A       37  34  89 NE2        N/A
* THOMP F APT  CLEAR     42  20  41 NE4        N/A
$$

MTZ008-052>055-251100-
SOUTHWEST MONTANA
CITY           SKY/WX    TMP DP  RH WIND       PRES   REMARKS
BOZEMAN        CLEAR     45  37  74 S6        30.09S
DILLON         CLEAR     48  34  59 S10       30.10S
W YELLOWSTONE  CLEAR     41  25  53 NW3       30.19R
* THREE FORKS  CLEAR     45  45 100 N/A        N/A
* BOULDER HILL N/A       49  30  48 SW6        N/A
* MONIDA PASS  N/A       44  27  51 S3         N/A
* RAYNOLDS PAS N/A       41  26  55 S6         N/A
* WHITEHALL    N/A       53  33  47 SE2G12     N/A
* WISE RIVER   N/A       41  31  68 NE2        N/A
$$

MTZ009>010-012-014-046-048-049-054-251100-
EAST SLOPES AND CENTRAL MONTANA
CITY           SKY/WX    TMP DP  RH WIND       PRES   REMARKS
CUT BANK       CLEAR     55  37  51 W24G32    29.90S
GREAT FALLS    CLEAR     55  36  49 SW21G26   29.96F
HELENA         CLEAR     55  36  49 SW3       30.06S
MALMSTROM AFB  CLEAR     57  36  46 SW12G25   29.97F
* CONRAD       CLEAR     50  43  77 SW8        N/A
* DEARBORN     N/A       61  35  38 S14G24     N/A
* EAST GLACIER N/A       53  36  53 W8G16      N/A
* MONARCH      N/A       50  27  41 SW9G16     N/A
* PENDROY      N/A       47  39  74 W4G9       N/A
* SAINT MARY   N/A       53  38  57 S11G28     N/A
* SWEET GRASS  N/A       54  36  51 W16G22     N/A
* WHITE SULPH  N/A       51  33  50 W6G11      N/A
$$

MTZ011-013-016-021-035-040-045-047-050-051-251100-
NORTH CENTRAL MONTANA
CITY           SKY/WX    TMP DP  RH WIND       PRES   REMARKS
HAVRE          CLEAR     54  37  53 SW18G28   29.86S
LEWISTOWN      CLEAR     57  34  42 SW17      29.97F
* FORT BENTON  CLEAR     59  36  42 SW9G17    29.92R
* CHESTER      N/A       56  38  51 W9G16      N/A
* DENTON       N/A       60  34  38 SW17G24    N/A
* GEYSER       N/A       56  32  40 SW19G26    N/A
* JUDITH GAP   N/A       50  32  50 SW6        N/A
* LOMA         N/A       58  36  44 W11        N/A
$$

MTZ017>020-022>027-061-062-251100-
NORTHEAST MONTANA
CITY           SKY/WX    TMP DP  RH WIND       PRES   REMARKS
GLASGOW        CLEAR     54  37  53 NW3       29.88S
GLENDIVE       CLEAR     52  46  80 NW8       29.94R
JORDAN         PTCLDY    45  37  74 NW5       29.94S
SIDNEY         CLEAR     52  46  80 CALM      29.90R
WOLF POINT     FOG       50  46  86 CALM      29.89S VSB 1 3/4
* BEAVER HILL  N/A       53  46  77 SW4        N/A
* CIRCLE       N/A       50  46  86 N/A        N/A
* LINDSAY DVD  N/A       50  44  80 W6         N/A
* NAVAJO       N/A       52  48  86 W10        N/A
$$

MTZ028>042-056>058-251100-
SOUTHCENTRAL AND SOUTHEAST MONTANA
CITY           SKY/WX    TMP DP  RH WIND       PRES   REMARKS
BAKER          CLEAR     52  46  80 W7        29.95R
BILLINGS       CLEAR     61  30  31 N7        30.00S
LIVINGSTON     CLEAR     54  30  40 NW7       30.06R
MILES CITY     CLEAR     55  50  83 W3        29.95R
* LAUREL APT   CLEAR     57  34  42 N/A        N/A
* ROUNDUP APT  CLEAR     59  28  31 N/A        N/A
* ALZADA       N/A       55  49  80 N/A        N/A
* HYSHAM       N/A       58  35  42 W4         N/A
* LAME DEER    N/A       60  39  46 E3         N/A
* REED POINT   N/A       56  31  39 SE1G6      N/A
* ROSCOE HILL  N/A       55  30  39 SE7        N/A
$$

REGIONAL REPORTS...DAKOTAS
CITY           SKY/WX    TMP DP  RH WIND       PRES   REMARKS
WILLISTON      CLEAR     54  50  86 CALM      29.86R
DICKINSON      CLEAR     54  50  86 W7        29.87R
CROSBY         N/A       54  54 100 SW7       29.83R
TIOGA          CLEAR     52  52 100 W5        29.87R
WATFORD CITY   CLEAR     50  50 100 S6        29.86R
BISMARCK       PTCLDY    66  63  90 N3        29.78R
GRAND FORKS    MOCLDY    66  63  90 S7        29.73R
FARGO          MOCLDY    66  61  84 E7        29.73F
BUFFALO SD     CLEAR     59  45  60 NW6       29.86R
RAPID CITY     CLEAR     64  43  47 NW21G29   29.90R
$$

REGIONAL REPORTS...WYOMING/IDAHO/WASHINGTON
CITY           SKY/WX    TMP DP  RH WIND       PRES   REMARKS
GILLETTE       CLEAR     50  45  83 NW3       30.02S
SHERIDAN       CLEAR     54  48  80 CALM      30.01S
YELLOWSTONE LA CLEAR     32  23  69 CALM      30.27R
SALMON         PTCLDY    48  36  63 SE5       30.10R
MULLAN PASS    MOCLDY    45  39  80 VRB7      30.15S
SAND POINT     PTCLDY    48  48 100 CALM      30.04F
SPOKANE        FAIR      54  41  62 S5        30.06F
$$

REGIONAL REPORTS...ALBERTA
CITY           SKY/WX    TMP DP  RH WIND       PRES   REMARKS
CALGARY        MOCLDY    57  36  46 W21G31    29.74F
LETHBRIDGE     CLEAR     57  41  55 W18G33    29.82R
MEDICINE HAT   CLEAR     52  45  77 SW15G21   29.75F
EDMONTON       LGT RAIN  54  52  93 W20G25    29.57F
WATERTON GATE  N/A       55  37  51 SW16G29    N/A
CARDSTON       N/A       57  39  51 W20G33     N/A
MILK RIVER     N/A       55  37  51 W18        N/A
$$

REGIONAL REPORTS...SASKATCHEWAN
CITY           SKY/WX    TMP DP  RH WIND       PRES   REMARKS
SWIFT CURRENT  CLEAR     50  43  77 SW20G25   29.75R
MOOSE JAW      N/A       55  48  77 SW13      29.74R
REGINA         N/A       54  48  80 SW12      29.76S
VAL MARIE      N/A       48  43  83 SW10       N/A
ASSINIBOIA     N/A       52  45  77 SW12       N/A
CORONACH       N/A       48  46  93 SW8        N/A

$$




USA.gov is the U.S. government's official web portal to all federal, state and local government web resources and services.